[[{"header":{"parameterUnit":"m.s-1","parameterCategory":1,"la1":30.2991,"la2":30.254,"lo1":-89.0895,"lo2":-89.0444,"dy":0.0017,"dx":0.0017,"nx":28,"ny":28,"refTime":"2025-08-09T03:00:00:Z","depth":0,"parameterNumber":2,"parameterNumberName":"U-component_of_WINDS"},"data":[0,0,0,0,0,0,0,0,0,0,0,0,0,0,0,0,0,0,0,0,0,0,0,0,0,0,0,0,0,0,0,0,0,0,0,0,0,0,0,0,0,0,0,0,0,0,0,0,0,0,0,0,0,0,0,0,0,0,-3.513,-3.5129,0,-3.5093,-3.5093,-3.5093,-3.4955,-3.4951,-3.4948,-3.4945,-3.4914,-3.4916,-3.4918,0,0,0,0,0,0,0,0,0,0,0,0,0,-3.5086,-3.5088,-3.513,-3.5129,-3.5129,-3.5094,-3.5093,-3.5093,-3.4955,-3.4951,-3.4947,-3.4944,-3.4913,-3.4916,-3.4918,0,0,0,0,0,0,0,0,0,0,0,0,0,-3.5083,-3.5088,-3.513,-3.5056,-3.5049,-3.5094,-3.5093,-3.5092,-3.4956,-3.4951,-3.4946,-3.4942,-3.4912,-3.4915,-3.4918,-3.5033,0,0,-3.4928,-3.493,0,0,0,0,0,0,0,0,-3.5084,-3.5085,-3.5067,-3.5061,-3.5053,-3.5023,-3.5066,-3.5073,-3.4957,-3.4992,-3.4945,-3.494,-3.4955,-3.4954,-3.4958,-3.5032,-3.503,-3.4928,-3.493,-3.4932,-3.4933,0,0,0,0,0,0,0,-3.5084,-3.5086,-3.5115,-3.5067,-3.5059,-3.5027,-3.5021,-3.5067,-3.5,-3.4988,-3.4978,-3.4975,-3.495,-3.4955,-3.4956,-3.503,-3.4928,-3.4931,-3.4933,-3.4934,-3.52,-3.5205,0,0,0,0,0,0,-3.5094,-3.5087,-3.5117,-3.5114,-3.5057,-3.5031,-3.5025,-3.5038,-3.4999,-3.4989,-3.4979,-3.4969,-3.4952,-3.4952,-3.4954,-3.5088,-3.4932,-3.4935,-3.4936,-3.5195,-3.5201,-3.5207,0,0,0,0,0,0,-3.5093,-3.5098,-3.5118,-3.5098,-3.5098,-3.5037,-3.5053,-3.504,-3.5045,-3.4993,-3.4981,-3.4997,-3.4948,-3.495,-3.5015,-3.5085,-3.4936,-3.4939,-3.5189,-3.5197,-3.5204,-3.5356,0,0,0,0,0,0,-3.5093,-3.5098,-3.514,-3.51,-3.5099,-3.5178,-3.5057,-3.5043,-3.505,-3.5036,-3.5006,-3.4996,-3.4945,-3.5011,-3.5018,-3.5087,-3.4941,-3.5182,-3.5192,-3.5201,-3.5345,-3.5368,-3.5388,0,0,0,0,0,-3.5092,-3.5185,-3.5143,-3.5147,-3.515,-3.5182,-3.5182,-3.5119,-3.5056,-3.5098,-3.5065,-3.4997,-3.5076,-3.5019,-3.5026,-3.5097,-3.5177,-3.5189,-3.5201,-3.5335,-3.5364,-3.5388,0,0,0,0,0,0,-3.5236,-3.5178,-3.5131,-3.5213,-3.5203,-3.5159,-3.521,-3.5151,-3.5161,-3.5147,-3.5071,-3.5065,-3.5143,-3.5125,-3.5063,-3.5207,-3.5116,-3.5129,-3.5215,-3.5242,-3.5264,-3.5267,-3.4944,0,0,0,0,0,-3.5277,-3.5306,-3.5254,-3.5332,-3.533,-3.5271,-3.5283,-3.5236,-3.5223,-3.5219,-3.519,-3.5183,-3.5206,-3.5223,-3.5241,-3.5341,-3.5335,-3.5394,-3.5416,-3.5434,-3.5447,-3.5502,-3.5529,-3.5245,-3.5245,-3.5244,0,0,-3.5362,-3.5335,-3.5358,-3.5361,-3.5348,-3.5382,-3.5269,-3.5309,-3.5335,-3.5225,-3.5285,-3.5265,-3.5251,-3.5335,-3.5371,-3.5324,-3.5524,-3.5449,-3.5464,-3.5467,-3.5517,-3.5544,-3.5568,-3.5253,-3.5251,-3.525,0,0,-3.5536,-3.5517,-3.5581,-3.557,-3.5552,-3.5512,-3.5528,-3.5493,-3.5474,-3.5533,-3.5453,-3.5483,-3.5524,-3.5518,-3.5521,-3.5696,-3.5635,-3.5704,-3.5819,-3.5873,-3.5896,-3.5915,-3.598,-3.6004,-3.5717,-3.5717,-3.5718,0,-3.5646,-3.5692,-3.5622,-3.5668,-3.5673,-3.5575,-3.564,-3.5634,-3.5624,-3.563,-3.5577,-3.5628,-3.5612,-3.5695,-3.5738,-3.5742,-3.576,-3.5708,-3.5898,-3.5917,-3.5934,-3.5995,-3.6019,-3.5726,-3.5725,-3.5724,-3.5723,0,-3.5829,-3.5863,-3.5917,-3.5908,-3.5919,-3.5975,-3.5916,-3.5936,-3.5888,-3.5856,-3.5919,-3.5896,-3.5909,-3.5925,-3.5879,-3.6003,-3.5974,-3.5911,-3.5817,-3.5971,-3.6027,-3.605,-3.5739,-3.5736,-3.5733,-3.5731,0,0,-3.6092,-3.6044,-3.6066,-3.6062,-3.6035,-3.6061,-3.6114,-3.6126,-3.6146,-3.6142,-3.6187,-3.6225,-3.6167,-3.617,-3.6123,-3.617,-3.6314,-3.6101,-3.61,-3.6144,-3.6452,-3.6502,-3.653,-3.6273,-3.6277,-3.628,-3.6454,0,-3.6259,-3.6345,-3.6284,-3.6381,-3.6414,-3.6322,-3.6368,-3.6359,-3.6331,-3.6355,-3.6324,-3.6353,-3.6273,-3.6275,-3.6317,-3.6288,-3.6375,-3.6274,-3.6316,-3.6319,-3.6324,-3.6559,-3.661,-3.6776,-3.6476,-3.6479,-3.6482,0,-3.6465,-3.6471,-3.6571,-3.654,-3.6551,-3.6594,-3.6601,-3.6625,-3.6614,-3.659,-3.6595,-3.6537,-3.6589,-3.6497,-3.657,-3.6503,-3.6517,-3.6505,-3.651,-3.6513,-3.6411,-3.657,-3.6826,-3.6853,-3.6515,-3.6513,-3.651,0,-3.665,-3.6682,-3.6747,-3.6746,-3.6711,-3.6744,-3.6731,-3.6715,-3.6727,-3.6734,-3.6741,-3.6755,-3.6764,-3.6777,-3.6725,-3.6662,-3.6807,-3.6709,-3.6791,-3.6793,-3.6827,-3.6826,-3.7092,-3.6833,-3.6833,-3.6833,-3.6832,0,-3.6844,-3.691,-3.683,-3.687,-3.6942,-3.6873,-3.6947,-3.6925,-3.6911,-3.6948,-3.6869,-3.6906,-3.6834,-3.6864,-3.6824,-3.6893,-3.6896,-3.6881,-3.687,-3.6889,-3.6891,-3.6898,-3.6886,-3.6839,-3.6838,-3.6836,-3.6835,0,-3.7063,-3.7012,-3.7077,-3.7038,-3.7031,-3.7086,-3.7054,-3.7091,-3.7058,-3.7105,-3.7112,-3.7061,-3.7092,-3.7041,-3.7067,-3.704,-3.7137,-3.7107,-3.714,-3.7132,-3.7218,-3.7212,-3.7499,-3.7534,-3.7252,-3.7255,-3.7257,0,-3.7191,-3.7239,-3.7207,-3.7225,-3.7216,-3.7246,-3.7258,-3.7193,-3.7209,-3.7201,-3.724,-3.7264,-3.728,-3.7336,-3.7302,-3.7322,-3.7294,-3.7393,-3.7297,-3.7315,-3.7298,-3.7297,-3.7303,-3.7414,-3.7417,-3.742,-3.7422,0,-3.7424,-3.7397,-3.7416,-3.7428,-3.7444,-3.745,-3.7451,-3.7471,-3.7402,-3.7425,-3.7455,-3.7468,-3.7494,-3.7521,-3.7533,-3.7522,-3.7463,-3.7453,-3.7473,-3.7494,-3.7513,-3.7506,-3.7197,-3.7447,-3.7444,-3.7442,-3.7441,-3.744,-3.7603,-3.7643,-3.7627,-3.7651,-3.7645,-3.7648,-3.7682,-3.7653,-3.7677,-3.7692,-3.7652,-3.7694,-3.7684,-3.7693,-3.769,-3.7723,-3.7679,-3.7709,-3.7716,-3.7725,-3.774,-3.7506,-3.7725,-3.7724,-3.7723,-3.7722,-3.7722,0,-3.7834,-3.782,-3.7843,-3.7847,-3.7867,-3.7807,-3.7805,-3.7828,-3.7864,-3.7859,-3.7877,-3.7914,-3.794,-3.7909,-3.793,-3.7963,-3.7936,-3.7971,-3.7969,-3.7968,-3.7776,-3.7757,-3.7992,-3.7992,-3.7992,-3.7992,-3.7992,-3.7992,-3.7957,-3.8022,-3.7994,-3.8056,-3.8041,-3.808,-3.8084,-3.8088,-3.8084,-3.8128,-3.8149,-3.8128,-3.8114,-3.8134,-3.8157,-3.8147,-3.816,-3.8205,-3.8186,-3.8008,-3.7981,-3.7956,-3.7938,-3.8207,-3.8208,-3.8376,-3.8377,-3.8379]},{"header":{"parameterUnit":"m.s-1","parameterCategory":1,"la1":30.2991,"la2":30.254,"lo1":-89.0895,"lo2":-89.0444,"dy":0.0017,"dx":0.0017,"nx":28,"ny":28,"refTime":"2025-08-09T03:00:00:Z","depth":0,"parameterNumber":3,"parameterNumberName":"V-component_of_WINDS"},"data":[0,0,0,0,0,0,0,0,0,0,0,0,0,0,0,0,0,0,0,0,0,0,0,0,0,0,0,0,0,0,0,0,0,0,0,0,0,0,0,0,0,0,0,0,0,0,0,0,0,0,0,0,0,0,0,0,0,0,-0.0341,-0.0341,0,-0.0319,-0.0319,-0.0319,-0.0283,-0.0282,-0.0282,-0.0281,-0.026,-0.0261,-0.0261,0,0,0,0,0,0,0,0,0,0,0,0,0,-0.0353,-0.0353,-0.0341,-0.0341,-0.034,-0.0319,-0.0319,-0.0319,-0.0283,-0.0282,-0.0281,-0.0281,-0.026,-0.0261,-0.0261,0,0,0,0,0,0,0,0,0,0,0,0,0,-0.0341,-0.0353,-0.0341,-0.032,-0.0318,-0.0319,-0.0319,-0.0319,-0.0283,-0.0282,-0.0281,-0.028,-0.026,-0.0261,-0.0261,-0.0281,0,0,-0.0261,-0.0261,0,0,0,0,0,0,0,0,-0.0342,-0.0341,-0.0323,-0.0321,-0.0319,-0.0303,-0.0316,-0.0306,-0.0283,-0.0296,-0.0281,-0.028,-0.0275,-0.0274,-0.0272,-0.028,-0.028,-0.0261,-0.0261,-0.0261,-0.0261,0,0,0,0,0,0,0,-0.0343,-0.0342,-0.0332,-0.0323,-0.0321,-0.0312,-0.0309,-0.0314,-0.0292,-0.0295,-0.0293,-0.029,-0.0274,-0.0272,-0.0272,-0.0279,-0.0261,-0.0261,-0.0261,-0.0261,-0.0305,-0.0306,0,0,0,0,0,0,-0.0346,-0.0342,-0.0333,-0.0332,-0.0328,-0.0313,-0.031,-0.0309,-0.0292,-0.0288,-0.0291,-0.0289,-0.0273,-0.0272,-0.0271,-0.0295,-0.0261,-0.0261,-0.0261,-0.0303,-0.0305,-0.0306,0,0,0,0,0,0,-0.0347,-0.0346,-0.0334,-0.0336,-0.0334,-0.0314,-0.0313,-0.0309,-0.0307,-0.0289,-0.0285,-0.0294,-0.0272,-0.0271,-0.0279,-0.0294,-0.0261,-0.0261,-0.0302,-0.0304,-0.0305,-0.0344,0,0,0,0,0,0,-0.0347,-0.0346,-0.0354,-0.0337,-0.0334,-0.0342,-0.0314,-0.0309,-0.0308,-0.0304,-0.029,-0.0287,-0.0271,-0.0279,-0.0279,-0.0294,-0.0262,-0.0301,-0.0303,-0.0305,-0.0341,-0.0347,-0.0351,0,0,0,0,0,-0.0348,-0.0366,-0.0354,-0.0353,-0.0343,-0.0343,-0.0342,-0.0323,-0.0309,-0.0317,-0.0305,-0.0287,-0.0292,-0.028,-0.028,-0.0295,-0.03,-0.0302,-0.0305,-0.0339,-0.0346,-0.0351,0,0,0,0,0,0,-0.0385,-0.0363,-0.035,-0.0363,-0.0355,-0.0337,-0.0346,-0.0331,-0.0327,-0.0325,-0.0302,-0.0299,-0.0311,-0.0303,-0.0291,-0.0315,-0.0293,-0.0296,-0.032,-0.0326,-0.0331,-0.0333,-0.0262,0,0,0,0,0,-0.0395,-0.0397,-0.0377,-0.039,-0.0387,-0.0367,-0.0367,-0.0353,-0.0344,-0.0341,-0.033,-0.0323,-0.0323,-0.0323,-0.0322,-0.0339,-0.0337,-0.0349,-0.0354,-0.0359,-0.0362,-0.0372,-0.0378,-0.0314,-0.0314,-0.0314,0,0,-0.0415,-0.0403,-0.0406,-0.0397,-0.039,-0.0393,-0.0365,-0.0369,-0.0372,-0.0342,-0.035,-0.0341,-0.0332,-0.0345,-0.035,-0.0339,-0.0378,-0.0362,-0.0365,-0.0366,-0.0375,-0.0381,-0.0387,-0.0316,-0.0315,-0.0315,0,0,-0.0454,-0.0444,-0.0455,-0.0448,-0.0436,-0.0423,-0.0426,-0.041,-0.0403,-0.041,-0.0389,-0.0391,-0.0391,-0.0386,-0.0383,-0.042,-0.0404,-0.042,-0.0447,-0.0457,-0.0462,-0.0466,-0.0481,-0.0487,-0.0422,-0.0422,-0.0423,0,-0.0481,-0.0484,-0.0462,-0.0468,-0.0466,-0.0438,-0.0449,-0.0443,-0.0433,-0.0432,-0.0419,-0.042,-0.0411,-0.0424,-0.0433,-0.043,-0.0434,-0.0422,-0.0463,-0.0467,-0.0471,-0.0485,-0.049,-0.0425,-0.0424,-0.0424,-0.0424,0,-0.0519,-0.0521,-0.0531,-0.0521,-0.052,-0.0528,-0.0508,-0.0509,-0.0495,-0.0484,-0.0492,-0.048,-0.0477,-0.0479,-0.0465,-0.049,-0.0483,-0.0467,-0.0445,-0.048,-0.0493,-0.0498,-0.0428,-0.0427,-0.0426,-0.0426,0,0,-0.0582,-0.056,-0.0564,-0.056,-0.0545,-0.0547,-0.0554,-0.0551,-0.0553,-0.0546,-0.0553,-0.0553,-0.0538,-0.0535,-0.052,-0.0529,-0.0561,-0.0512,-0.0511,-0.0523,-0.0589,-0.0604,-0.061,-0.0549,-0.055,-0.0551,-0.0591,0,-0.062,-0.0631,-0.0612,-0.0628,-0.0631,-0.0604,-0.0611,-0.0603,-0.0592,-0.0594,-0.0581,-0.0583,-0.0562,-0.056,-0.0567,-0.0556,-0.0574,-0.0552,-0.0557,-0.0558,-0.0563,-0.0616,-0.0631,-0.067,-0.0596,-0.0596,-0.0597,0,-0.0666,-0.0661,-0.0678,-0.0663,-0.0663,-0.067,-0.0665,-0.0666,-0.0657,-0.0648,-0.0645,-0.0627,-0.0634,-0.0612,-0.0622,-0.0607,-0.0608,-0.0603,-0.0604,-0.0605,-0.0581,-0.0622,-0.0681,-0.0688,-0.0604,-0.0604,-0.0603,0,-0.0713,-0.0711,-0.0721,-0.0718,-0.07,-0.0705,-0.0698,-0.0688,-0.0687,-0.0683,-0.0683,-0.0679,-0.0678,-0.0676,-0.0659,-0.0644,-0.0672,-0.0647,-0.0667,-0.0667,-0.0676,-0.0676,-0.0739,-0.0672,-0.0672,-0.0672,-0.0672,0,-0.0759,-0.0771,-0.0742,-0.0749,-0.0762,-0.0738,-0.0752,-0.0742,-0.0733,-0.0738,-0.0714,-0.0719,-0.0694,-0.0697,-0.0683,-0.0695,-0.0694,-0.0688,-0.0685,-0.0692,-0.0693,-0.0694,-0.0692,-0.0674,-0.0673,-0.0673,-0.0673,0,-0.0815,-0.0796,-0.0806,-0.0788,-0.0784,-0.0794,-0.0779,-0.0785,-0.0772,-0.0778,-0.0778,-0.0758,-0.076,-0.0742,-0.074,-0.0731,-0.075,-0.0741,-0.0754,-0.0752,-0.0773,-0.0772,-0.084,-0.0849,-0.0775,-0.0775,-0.0776,0,-0.0847,-0.0856,-0.0838,-0.084,-0.0834,-0.0836,-0.0835,-0.0812,-0.0812,-0.0802,-0.081,-0.0809,-0.0808,-0.0813,-0.0799,-0.0797,-0.079,-0.0813,-0.0789,-0.0797,-0.0793,-0.0794,-0.0795,-0.0819,-0.082,-0.0821,-0.0822,0,-0.0906,-0.0896,-0.0896,-0.0892,-0.0891,-0.0887,-0.0882,-0.0884,-0.086,-0.0861,-0.0863,-0.0862,-0.086,-0.0861,-0.0857,-0.085,-0.0833,-0.0829,-0.0834,-0.0842,-0.085,-0.0849,-0.077,-0.0828,-0.0827,-0.0827,-0.0827,-0.0826,-0.0953,-0.0959,-0.0949,-0.0949,-0.0942,-0.0938,-0.0943,-0.093,-0.0931,-0.0927,-0.0914,-0.0918,-0.0909,-0.0902,-0.0896,-0.09,-0.0889,-0.0895,-0.0897,-0.09,-0.0905,-0.0847,-0.0899,-0.0899,-0.0898,-0.0898,-0.0898,0,-0.1013,-0.1004,-0.1004,-0.0998,-0.0998,-0.098,-0.0973,-0.0975,-0.0979,-0.0971,-0.097,-0.0973,-0.0973,-0.0959,-0.0957,-0.0963,-0.0955,-0.0964,-0.0965,-0.0964,-0.0914,-0.0911,-0.0971,-0.0971,-0.0971,-0.0971,-0.0971,-0.0971,-0.1044,-0.1055,-0.1044,-0.1052,-0.1043,-0.1047,-0.1045,-0.1041,-0.1035,-0.1039,-0.1039,-0.1029,-0.1019,-0.1017,-0.1017,-0.1013,-0.1015,-0.1027,-0.102,-0.0974,-0.0967,-0.0961,-0.0958,-0.1026,-0.1027,-0.107,-0.107,-0.1071]}]]